| time (UTC) | temp F | wind direction | speed MPH | gust MPH | rain 1hr in | rain 24hr in | rain mn in | humidity % | barometer mb |
| 20260506014526 | 80 | 107 | 0.0 | 2.0 | 0.00 | 0.00 | 0.00 | 76 | 1006.5 |
| 20260506013027 | 80 | 83 | 0.0 | 2.0 | 0.00 | 0.00 | 0.00 | 75 | 1006.6 |
| 20260506011518 | 80 | 40 | 0.0 | 0.0 | 0.00 | 0.00 | 0.00 | 74 | 1006.3 |
| 20260506010046 | 81 | 42 | 0.0 | 2.0 | 0.00 | 0.00 | 0.00 | 73 | 1006.0 |
| 20260506004526 | 81 | 128 | 0.0 | 3.0 | 0.00 | 0.00 | 0.00 | 72 | 1005.6 |
| 20260506003030 | 82 | 287 | 1.0 | 4.0 | 0.00 | 0.00 | 0.00 | 71 | 1005.6 |
| 20260506001530 | 82 | 81 | 0.0 | 2.0 | 0.00 | 0.00 | 0.00 | 70 | 1005.5 |
| 20260506000029 | 83 | 76 | 1.0 | 5.0 | 0.00 | 0.00 | 0.00 | 69 | 1005.8 |
| 20260505234503 | 83 | 311 | 0.0 | 3.0 | 0.00 | 0.00 | 0.00 | 69 | 1005.8 |
| 20260505233009 | 83 | 74 | 0.0 | 3.0 | 0.00 | 0.00 | 0.00 | 68 | 1005.6 |
| 20260505231513 | 84 | 74 | 0.0 | 3.0 | 0.00 | 0.00 | 0.00 | 67 | 1005.3 |
| 20260505230025 | 84 | 5 | 0.0 | 4.0 | 0.00 | 0.00 | 0.00 | 66 | 1005.2 |
| 20260505224522 | 85 | 50 | 1.0 | 3.0 | 0.00 | 0.00 | 0.00 | 66 | 1005.1 |
| 20260505223007 | 85 | 169 | 0.0 | 6.0 | 0.00 | 0.00 | 0.00 | 66 | 1005.2 |
| 20260505221512 | 86 | 42 | 1.0 | 6.0 | 0.00 | 0.00 | 0.00 | 64 | 1005.1 |
| 20260505220019 | 86 | 330 | 0.0 | 4.0 | 0.00 | 0.00 | 0.00 | 65 | 1005.4 |
| 20260505214521 | 86 | 59 | 0.0 | 7.0 | 0.00 | 0.00 | 0.00 | 64 | 1005.6 |
| 20260505213027 | 86 | 99 | 0.0 | 4.0 | 0.00 | 0.00 | 0.00 | 63 | 1005.9 |
| 20260505211508 | 87 | 25 | 0.0 | 4.0 | 0.00 | 0.00 | 0.00 | 63 | 1005.9 |
| 20260505210014 | 86 | 243 | 1.0 | 6.0 | 0.00 | 0.00 | 0.00 | 65 | 1006.0 |
| 20260505204521 | 85 | 9 | 1.0 | 9.0 | 0.00 | 0.00 | 0.00 | 66 | 1006.0 |
| 20260505203030 | 85 | 45 | 2.0 | 6.0 | 0.00 | 0.00 | 0.00 | 66 | 1006.1 |
| 20260505201510 | 85 | 149 | 2.0 | 5.0 | 0.00 | 0.00 | 0.00 | 65 | 1006.3 |
| 20260505200032 | 84 | 243 | 0.0 | 4.0 | 0.00 | 0.00 | 0.00 | 66 | 1006.5 |
| 20260505194518 | 85 | 17 | 1.0 | 4.0 | 0.00 | 0.00 | 0.00 | 66 | 1006.7 |
| 20260505193020 | 83 | 57 | 1.0 | 11.0 | 0.00 | 0.00 | 0.00 | 68 | 1006.9 |
| 20260505191526 | 83 | 21 | 2.0 | 5.0 | 0.00 | 0.00 | 0.00 | 66 | 1006.7 |
| 20260505190010 | 82 | 19 | 1.0 | 7.0 | 0.00 | 0.00 | 0.00 | 71 | 1006.7 |
| 20260505184516 | 81 | 51 | 1.0 | 5.0 | 0.00 | 0.00 | 0.00 | 71 | 1007.0 |
| 20260505183019 | 81 | 92 | 3.0 | 10.0 | 0.00 | 0.00 | 0.00 | 71 | 1007.1 |
| 20260505181522 | 80 | 81 | 1.0 | 9.0 | 0.00 | 0.00 | 0.00 | 71 | 1007.1 |
| 20260505180026 | 80 | 109 | 1.0 | 7.0 | 0.00 | 0.00 | 0.00 | 72 | 1007.4 |
| 20260505174510 | 80 | 236 | 0.0 | 5.0 | 0.00 | 0.00 | 0.00 | 71 | 1007.5 |
| 20260505173016 | 80 | 16 | 1.0 | 8.0 | 0.00 | 0.00 | 0.00 | 72 | 1007.2 |
| 20260505171535 | 80 | 58 | 0.0 | 6.0 | 0.00 | 0.00 | 0.00 | 73 | 1007.4 |
| 20260505170025 | 79 | 26 | 2.0 | 8.0 | 0.00 | 0.00 | 0.00 | 73 | 1007.4 |
| 20260505164528 | 78 | 76 | 1.0 | 6.0 | 0.00 | 0.00 | 0.00 | 76 | 1007.7 |
| 20260505163014 | 77 | 46 | 1.0 | 8.0 | 0.00 | 0.00 | 0.00 | 76 | 1007.6 |
| 20260505161519 | 75 | 339 | 0.0 | 5.0 | 0.00 | 0.00 | 0.00 | 79 | 1007.7 |
| 20260505153012 | 73 | 334 | 2.0 | 7.0 | 0.00 | 0.00 | 0.00 | 80 | 1007.4 |
| 20260505151529 | 73 | 290 | 3.0 | 10.0 | 0.00 | 0.00 | 0.00 | 80 | 1007.8 |
| 20260505124524 | 70 | 12 | 1.0 | 3.0 | 0.00 | 0.00 | 0.00 | 84 | 1007.6 |
| 20260505123027 | 70 | 5 | 1.0 | 5.0 | 0.00 | 0.00 | 0.00 | 84 | 1007.3 |
| 20260505121532 | 69 | 161 | 1.0 | 4.0 | 0.00 | 0.00 | 0.00 | 84 | 1007.2 |
| 20260505120055 | 69 | 38 | 1.0 | 7.0 | 0.00 | 0.00 | 0.00 | 84 | 1006.9 |
| 20260505114524 | 69 | 94 | 0.0 | 8.0 | 0.00 | 0.00 | 0.00 | 84 | 1006.8 |
| 20260505113027 | 69 | 177 | 0.0 | 3.0 | 0.00 | 0.00 | 0.00 | 84 | 1006.9 |
| 20260505111528 | 69 | 265 | 0.0 | 3.0 | 0.00 | 0.00 | 0.00 | 84 | 1007.0 |
| 20260505101526 | 68 | 101 | 1.0 | 5.0 | 0.00 | 0.00 | 0.00 | 84 | 1006.6 |
| 20260505100028 | 68 | 342 | 1.0 | 11.0 | 0.00 | 0.00 | 0.00 | 84 | 1006.7 |
| 20260505094516 | 68 | 46 | 2.0 | 11.0 | 0.00 | 0.00 | 0.00 | 84 | 1006.5 |
| 20260505093033 | 68 | 99 | 2.0 | 7.0 | 0.00 | 0.00 | 0.00 | 84 | 1006.6 |
| 20260505091529 | 68 | 79 | 1.0 | 7.0 | 0.00 | 0.00 | 0.00 | 84 | 1006.9 |
| 20260505090039 | 68 | 115 | 1.0 | 6.0 | 0.00 | 0.00 | 0.00 | 84 | 1006.9 |
| 20260505084516 | 67 | 13 | 2.0 | 6.0 | 0.00 | 0.00 | 0.00 | 84 | 1007.2 |
| 20260505083019 | 67 | 46 | 2.0 | 8.0 | 0.00 | 0.00 | 0.00 | 84 | 1007.2 |
| 20260505081528 | 67 | 132 | 2.0 | 7.0 | 0.00 | 0.00 | 0.00 | 84 | 1007.2 |
| 20260505080033 | 67 | 126 | 1.0 | 5.0 | 0.00 | 0.00 | 0.00 | 84 | 1007.4 |
| 20260505074528 | 67 | 62 | 2.0 | 7.0 | 0.00 | 0.00 | 0.00 | 83 | 1007.4 |
| 20260505073030 | 67 | 126 | 1.0 | 7.0 | 0.00 | 0.00 | 0.00 | 83 | 1007.7 |
| 20260505071513 | 67 | 92 | 2.0 | 7.0 | 0.00 | 0.00 | 0.00 | 82 | 1007.9 |
| 20260505070008 | 68 | 110 | 2.0 | 6.0 | 0.00 | 0.00 | 0.00 | 82 | 1008.2 |
| 20260505064530 | 68 | 92 | 1.0 | 7.0 | 0.00 | 0.00 | 0.00 | 81 | 1008.2 |
| 20260505063030 | 68 | 98 | 3.0 | 6.0 | 0.00 | 0.00 | 0.00 | 81 | 1008.4 |
| 20260505061545 | 68 | 86 | 3.0 | 8.0 | 0.00 | 0.00 | 0.00 | 80 | 1008.5 |
| 20260505060007 | 68 | 19 | 2.0 | 4.0 | 0.00 | 0.00 | 0.00 | 79 | 1008.5 |
| 20260505054508 | 69 | 74 | 1.0 | 7.0 | 0.00 | 0.00 | 0.00 | 79 | 1008.5 |
| 20260505053013 | 69 | 40 | 1.0 | 6.0 | 0.00 | 0.00 | 0.00 | 78 | 1008.7 |
| 20260505051521 | 69 | 124 | 1.0 | 4.0 | 0.00 | 0.00 | 0.00 | 77 | 1008.8 |
| 20260505041516 | 70 | 142 | 1.0 | 6.0 | 0.00 | 0.00 | 0.00 | 74 | 1008.7 |
| 20260505040021 | 71 | 147 | 2.0 | 5.0 | 0.00 | 0.00 | 0.00 | 73 | 1008.9 |
| 20260505034526 | 71 | 99 | 1.0 | 5.0 | 0.00 | 0.00 | 0.00 | 71 | 1008.8 |
| 20260505033012 | 71 | 62 | 2.0 | 7.0 | 0.00 | 0.00 | 0.00 | 70 | 1008.8 |
| 20260505031536 | 72 | 360 | 1.0 | 6.0 | 0.00 | 0.00 | 0.00 | 69 | 1008.6 |
| 20260505030020 | 72 | 105 | 1.0 | 4.0 | 0.00 | 0.00 | 0.00 | 67 | 1008.7 |
| 20260505024532 | 72 | 113 | 1.0 | 7.0 | 0.00 | 0.00 | 0.00 | 66 | 1008.5 |
| 20260505023010 | 73 | 74 | 0.0 | 5.0 | 0.00 | 0.00 | 0.00 | 65 | 1008.6 |
| 20260505021517 | 73 | 70 | 1.0 | 4.0 | 0.00 | 0.00 | 0.00 | 64 | 1008.6 |
| 20260505020028 | 73 | 74 | 0.0 | 3.0 | 0.00 | 0.00 | 0.00 | 63 | 1008.5 |